| time (UTC) | temp F | wind direction | speed MPH | gust MPH | rain 1hr in | rain 24hr in | rain mn in | humidity % | barometer mb |
| 20260902234028 | 92 | 0 | 0.0 | 0.0 | 0.00 | 0.00 | 0.00 | 56 | 1015.8 |
| 20260902233528 | 93 | 0 | 0.0 | 1.0 | 0.00 | 0.00 | 0.00 | 55 | 1015.7 |
| 20260902233101 | 92 | 0 | 0.0 | 1.0 | 0.00 | 0.00 | 0.00 | 55 | 1015.8 |
| 20260902232532 | 93 | 0 | 0.0 | 1.0 | 0.00 | 0.00 | 0.00 | 55 | 1015.8 |
| 20260902232031 | 93 | 0 | 0.0 | 1.0 | 0.00 | 0.00 | 0.00 | 54 | 1015.7 |
| 20260902231559 | 93 | 0 | 0.0 | 1.0 | 0.00 | 0.00 | 0.00 | 53 | 1015.8 |
| 20260902231031 | 94 | 104 | 0.0 | 0.0 | 0.00 | 0.00 | 0.00 | 52 | 1015.8 |
| 20260902230527 | 95 | 0 | 0.0 | 2.0 | 0.00 | 0.00 | 0.00 | 51 | 1015.8 |
| 20260902230105 | 95 | 0 | 0.0 | 3.0 | 0.00 | 0.00 | 0.00 | 50 | 1015.8 |
| 20260902225528 | 95 | 360 | 0.0 | 3.0 | 0.00 | 0.00 | 0.00 | 51 | 1015.9 |
| 20260902225028 | 95 | 0 | 0.0 | 3.0 | 0.00 | 0.00 | 0.00 | 50 | 1015.9 |
| 20260902224557 | 96 | 13 | 0.0 | 3.0 | 0.00 | 0.00 | 0.00 | 50 | 1015.9 |
| 20260902224030 | 96 | 0 | 0.0 | 2.0 | 0.00 | 0.00 | 0.00 | 49 | 1016.0 |
| 20260902223530 | 96 | 188 | 0.0 | 4.0 | 0.00 | 0.00 | 0.00 | 49 | 1015.8 |
| 20260902223116 | 96 | 0 | 1.0 | 4.0 | 0.00 | 0.00 | 0.00 | 49 | 1015.9 |
| 20260902222530 | 96 | 0 | 0.0 | 3.0 | 0.00 | 0.00 | 0.00 | 48 | 1015.9 |
| 20260902222029 | 96 | 0 | 0.0 | 5.0 | 0.00 | 0.00 | 0.00 | 48 | 1016.0 |
| 20260902221600 | 97 | 0 | 0.0 | 5.0 | 0.00 | 0.00 | 0.00 | 49 | 1016.0 |
| 20260902221034 | 97 | 0 | 0.0 | 4.0 | 0.00 | 0.00 | 0.00 | 49 | 1015.9 |
| 20260902220527 | 97 | 0 | 0.0 | 4.0 | 0.00 | 0.00 | 0.00 | 49 | 1016.0 |
| 20260902220055 | 97 | 0 | 0.0 | 4.0 | 0.00 | 0.00 | 0.00 | 48 | 1016.0 |
| 20260902215530 | 97 | 158 | 0.0 | 6.0 | 0.00 | 0.00 | 0.00 | 48 | 1016.2 |
| 20260902215027 | 97 | 0 | 2.0 | 6.0 | 0.00 | 0.00 | 0.00 | 48 | 1016.1 |
| 20260902214547 | 97 | 219 | 1.0 | 5.0 | 0.00 | 0.00 | 0.00 | 47 | 1016.0 |
| 20260902214028 | 97 | 0 | 0.0 | 5.0 | 0.00 | 0.00 | 0.00 | 48 | 1016.2 |
| 20260902213529 | 96 | 0 | 0.0 | 5.0 | 0.00 | 0.00 | 0.00 | 48 | 1016.2 |
| 20260902213056 | 97 | 0 | 0.0 | 9.0 | 0.00 | 0.00 | 0.00 | 50 | 1016.1 |
| 20260902212530 | 96 | 175 | 0.0 | 9.0 | 0.00 | 0.00 | 0.00 | 49 | 1016.1 |
| 20260902212028 | 96 | 230 | 0.0 | 6.0 | 0.00 | 0.00 | 0.00 | 48 | 1016.2 |
| 20260902211554 | 95 | 12 | 0.0 | 2.0 | 0.00 | 0.00 | 0.00 | 50 | 1016.2 |
| 20260902211032 | 95 | 0 | 0.0 | 5.0 | 0.00 | 0.00 | 0.00 | 51 | 1016.3 |
| 20260902210528 | 95 | 0 | 1.0 | 6.0 | 0.00 | 0.00 | 0.00 | 50 | 1016.4 |
| 20260902210045 | 96 | 3 | 0.0 | 6.0 | 0.00 | 0.00 | 0.00 | 48 | 1016.4 |
| 20260902205529 | 96 | 0 | 1.0 | 5.0 | 0.00 | 0.00 | 0.00 | 49 | 1016.4 |
| 20260902205034 | 95 | 1 | 2.0 | 7.0 | 0.00 | 0.00 | 0.00 | 50 | 1016.3 |
| 20260902204606 | 95 | 20 | 3.0 | 8.0 | 0.00 | 0.00 | 0.00 | 49 | 1016.3 |
| 20260902204031 | 95 | 2 | 4.0 | 8.0 | 0.00 | 0.00 | 0.00 | 50 | 1016.4 |
| 20260902203533 | 97 | 0 | 0.0 | 4.0 | 0.00 | 0.00 | 0.00 | 48 | 1016.4 |
| 20260902203045 | 97 | 194 | 0.0 | 4.0 | 0.00 | 0.00 | 0.00 | 48 | 1016.4 |
| 20260902202532 | 96 | 0 | 0.0 | 5.0 | 0.00 | 0.00 | 0.00 | 50 | 1016.5 |
| 20260902202028 | 95 | 54 | 0.0 | 6.0 | 0.00 | 0.00 | 0.00 | 50 | 1016.6 |
| 20260902201555 | 96 | 325 | 1.0 | 6.0 | 0.00 | 0.00 | 0.00 | 48 | 1016.6 |
| 20260902201028 | 97 | 304 | 0.0 | 5.0 | 0.00 | 0.00 | 0.00 | 48 | 1016.6 |
| 20260902200531 | 96 | 122 | 1.0 | 5.0 | 0.00 | 0.00 | 0.00 | 49 | 1016.6 |
| 20260902200053 | 96 | 0 | 0.0 | 4.0 | 0.00 | 0.00 | 0.00 | 49 | 1016.6 |
| 20260902195528 | 96 | 0 | 0.0 | 7.0 | 0.00 | 0.00 | 0.00 | 50 | 1016.6 |
| 20260902195029 | 95 | 313 | 0.0 | 7.0 | 0.00 | 0.00 | 0.00 | 52 | 1016.8 |
| 20260902194551 | 95 | 35 | 2.0 | 7.0 | 0.00 | 0.00 | 0.00 | 51 | 1016.9 |
| 20260902194028 | 97 | 180 | 0.0 | 10.0 | 0.00 | 0.00 | 0.00 | 49 | 1016.8 |
| 20260902193528 | 97 | 236 | 0.0 | 10.0 | 0.00 | 0.00 | 0.00 | 48 | 1016.9 |
| 20260902193058 | 96 | 193 | 0.0 | 5.0 | 0.00 | 0.00 | 0.00 | 50 | 1017.0 |
| 20260902192528 | 95 | 296 | 1.0 | 5.0 | 0.00 | 0.00 | 0.00 | 50 | 1017.1 |
| 20260902192029 | 95 | 328 | 2.0 | 5.0 | 0.00 | 0.00 | 0.00 | 52 | 1017.2 |
| 20260902191555 | 94 | 0 | 2.0 | 5.0 | 0.00 | 0.00 | 0.00 | 52 | 1017.2 |
| 20260902191028 | 93 | 353 | 2.0 | 7.0 | 0.00 | 0.00 | 0.00 | 53 | 1017.2 |
| 20260902190529 | 94 | 30 | 0.0 | 7.0 | 0.00 | 0.00 | 0.00 | 53 | 1017.4 |
| 20260902190051 | 93 | 326 | 2.0 | 9.0 | 0.00 | 0.00 | 0.00 | 52 | 1017.5 |
| 20260902185529 | 94 | 4 | 2.0 | 9.0 | 0.00 | 0.00 | 0.00 | 52 | 1017.5 |
| 20260902185029 | 95 | 8 | 4.0 | 8.0 | 0.00 | 0.00 | 0.00 | 51 | 1017.5 |
| 20260902184547 | 96 | 0 | 1.0 | 8.0 | 0.00 | 0.00 | 0.00 | 50 | 1017.5 |
| 20260902184028 | 95 | 49 | 3.0 | 8.0 | 0.00 | 0.00 | 0.00 | 49 | 1017.6 |
| 20260902183530 | 95 | 82 | 2.0 | 7.0 | 0.00 | 0.00 | 0.00 | 48 | 1017.6 |
| 20260902183058 | 96 | 0 | 0.0 | 7.0 | 0.00 | 0.00 | 0.00 | 49 | 1017.5 |
| 20260902182530 | 96 | 179 | 1.0 | 4.0 | 0.00 | 0.00 | 0.00 | 49 | 1017.6 |
| 20260902182028 | 96 | 20 | 0.0 | 7.0 | 0.00 | 0.00 | 0.00 | 50 | 1017.8 |
| 20260902181611 | 95 | 319 | 1.0 | 7.0 | 0.00 | 0.00 | 0.00 | 50 | 1017.8 |
| 20260902181029 | 96 | 318 | 2.0 | 7.0 | 0.00 | 0.00 | 0.00 | 49 | 1017.8 |
| 20260902180528 | 97 | 0 | 0.0 | 4.0 | 0.00 | 0.00 | 0.00 | 48 | 1017.8 |
| 20260902180055 | 96 | 0 | 0.0 | 7.0 | 0.00 | 0.00 | 0.00 | 50 | 1017.7 |
| 20260902175529 | 95 | 191 | 1.0 | 7.0 | 0.00 | 0.00 | 0.00 | 51 | 1017.8 |
| 20260902175030 | 95 | 347 | 2.0 | 6.0 | 0.00 | 0.00 | 0.00 | 50 | 1017.9 |
| 20260902174559 | 96 | 195 | 0.0 | 4.0 | 0.00 | 0.00 | 0.00 | 51 | 1017.9 |
| 20260902174029 | 94 | 0 | 1.0 | 7.0 | 0.00 | 0.00 | 0.00 | 51 | 1017.9 |
| 20260902173528 | 94 | 311 | 3.0 | 7.0 | 0.00 | 0.00 | 0.00 | 52 | 1018.1 |
| 20260902173058 | 95 | 207 | 0.0 | 6.0 | 0.00 | 0.00 | 0.00 | 51 | 1018.1 |
| 20260902172531 | 93 | 0 | 1.0 | 6.0 | 0.00 | 0.00 | 0.00 | 52 | 1018.2 |
| 20260902172028 | 95 | 0 | 1.0 | 4.0 | 0.00 | 0.00 | 0.00 | 51 | 1018.3 |
| 20260902171551 | 95 | 153 | 0.0 | 5.0 | 0.00 | 0.00 | 0.00 | 52 | 1018.5 |
| 20260902171029 | 93 | 0 | 2.0 | 5.0 | 0.00 | 0.00 | 0.00 | 52 | 1018.5 |
| 20260902170526 | 94 | 286 | 1.0 | 3.0 | 0.00 | 0.00 | 0.00 | 54 | 1018.6 |
| 20260902170057 | 94 | 281 | 0.0 | 4.0 | 0.00 | 0.00 | 0.00 | 52 | 1018.5 |
| 20260902165529 | 94 | 0 | 1.0 | 6.0 | 0.00 | 0.00 | 0.00 | 54 | 1018.5 |
| 20260902165028 | 93 | 181 | 1.0 | 6.0 | 0.00 | 0.00 | 0.00 | 53 | 1018.6 |
| 20260902164559 | 93 | 354 | 2.0 | 6.0 | 0.00 | 0.00 | 0.00 | 54 | 1018.6 |
| 20260902164028 | 92 | 0 | 1.0 | 5.0 | 0.00 | 0.00 | 0.00 | 55 | 1018.7 |
| 20260902163529 | 94 | 174 | 1.0 | 7.0 | 0.00 | 0.00 | 0.00 | 54 | 1018.7 |
| 20260902163047 | 92 | 0 | 2.0 | 7.0 | 0.00 | 0.00 | 0.00 | 56 | 1018.9 |
| 20260902162527 | 92 | 15 | 1.0 | 8.0 | 0.00 | 0.00 | 0.00 | 56 | 1018.9 |
| 20260902162028 | 92 | 21 | 2.0 | 8.0 | 0.00 | 0.00 | 0.00 | 55 | 1018.9 |
| 20260902161600 | 91 | 346 | 3.0 | 7.0 | 0.00 | 0.00 | 0.00 | 55 | 1018.9 |
| 20260902161028 | 92 | 103 | 1.0 | 5.0 | 0.00 | 0.00 | 0.00 | 54 | 1018.9 |
| 20260902160530 | 92 | 58 | 0.0 | 7.0 | 0.00 | 0.00 | 0.00 | 54 | 1018.9 |
| 20260902160054 | 92 | 34 | 0.0 | 7.0 | 0.00 | 0.00 | 0.00 | 55 | 1019.0 |
| 20260902155530 | 93 | 0 | 1.0 | 5.0 | 0.00 | 0.00 | 0.00 | 56 | 1018.8 |
| 20260902155029 | 91 | 214 | 1.0 | 7.0 | 0.00 | 0.00 | 0.00 | 58 | 1019.0 |
| 20260902154549 | 91 | 41 | 3.0 | 7.0 | 0.00 | 0.00 | 0.00 | 58 | 1019.0 |
| 20260902154029 | 91 | 129 | 0.0 | 5.0 | 0.00 | 0.00 | 0.00 | 57 | 1019.1 |
| 20260902153529 | 91 | 146 | 0.0 | 5.0 | 0.00 | 0.00 | 0.00 | 57 | 1019.0 |
| 20260902153106 | 90 | 168 | 1.0 | 5.0 | 0.00 | 0.00 | 0.00 | 60 | 1019.1 |
| 20260902152530 | 90 | 35 | 0.0 | 8.0 | 0.00 | 0.00 | 0.00 | 61 | 1019.0 |
| 20260902152031 | 90 | 0 | 1.0 | 8.0 | 0.00 | 0.00 | 0.00 | 61 | 1019.0 |
| 20260902151552 | 89 | 15 | 2.0 | 8.0 | 0.00 | 0.00 | 0.00 | 62 | 1018.9 |
| 20260902151031 | 89 | 157 | 1.0 | 7.0 | 0.00 | 0.00 | 0.00 | 63 | 1019.0 |
| 20260902150530 | 89 | 9 | 3.0 | 8.0 | 0.00 | 0.00 | 0.00 | 64 | 1019.1 |
| 20260902150045 | 89 | 0 | 0.0 | 8.0 | 0.00 | 0.00 | 0.00 | 65 | 1019.3 |
| 20260902145531 | 88 | 44 | 2.0 | 6.0 | 0.00 | 0.00 | 0.00 | 65 | 1019.2 |
| 20260902145031 | 88 | 50 | 1.0 | 6.0 | 0.00 | 0.00 | 0.00 | 66 | 1019.3 |
| 20260902144545 | 88 | 67 | 1.0 | 4.0 | 0.00 | 0.00 | 0.00 | 66 | 1019.3 |
| 20260902144031 | 88 | 335 | 1.0 | 5.0 | 0.00 | 0.00 | 0.00 | 67 | 1019.3 |
| 20260902143533 | 87 | 358 | 0.0 | 5.0 | 0.00 | 0.00 | 0.00 | 68 | 1019.2 |
| 20260902143057 | 87 | 318 | 2.0 | 5.0 | 0.00 | 0.00 | 0.00 | 69 | 1019.2 |
| 20260902142528 | 87 | 18 | 1.0 | 5.0 | 0.00 | 0.00 | 0.00 | 68 | 1019.1 |
| 20260902142031 | 86 | 3 | 2.0 | 5.0 | 0.00 | 0.00 | 0.00 | 68 | 1019.1 |
| 20260902141550 | 87 | 0 | 0.0 | 4.0 | 0.00 | 0.00 | 0.00 | 69 | 1019.1 |
| 20260902141030 | 86 | 32 | 1.0 | 4.0 | 0.00 | 0.00 | 0.00 | 68 | 1019.0 |
| 20260902140531 | 86 | 0 | 1.0 | 4.0 | 0.00 | 0.00 | 0.00 | 70 | 1019.0 |
| 20260902140046 | 86 | 0 | 0.0 | 3.0 | 0.00 | 0.00 | 0.00 | 69 | 1019.0 |
| 20260902135534 | 86 | 0 | 0.0 | 1.0 | 0.00 | 0.00 | 0.00 | 69 | 1018.9 |
| 20260902135031 | 86 | 0 | 0.0 | 2.0 | 0.00 | 0.00 | 0.00 | 70 | 1018.9 |
| 20260902134556 | 85 | 0 | 0.0 | 2.0 | 0.00 | 0.00 | 0.00 | 71 | 1019.0 |
| 20260902134028 | 85 | 0 | 0.0 | 1.0 | 0.00 | 0.00 | 0.00 | 72 | 1019.0 |
| 20260902133532 | 85 | 0 | 0.0 | 2.0 | 0.00 | 0.00 | 0.00 | 73 | 1018.9 |
| 20260902133103 | 85 | 0 | 0.0 | 2.0 | 0.00 | 0.00 | 0.00 | 72 | 1018.9 |
| 20260902132532 | 85 | 0 | 0.0 | 1.0 | 0.00 | 0.00 | 0.00 | 73 | 1019.0 |
| 20260902132028 | 85 | 173 | 0.0 | 0.0 | 0.00 | 0.00 | 0.00 | 72 | 1018.9 |
| 20260902131552 | 85 | 0 | 0.0 | 0.0 | 0.00 | 0.00 | 0.00 | 74 | 1019.0 |
| 20260902131033 | 84 | 175 | 0.0 | 0.0 | 0.00 | 0.00 | 0.00 | 74 | 1019.1 |
| 20260902130531 | 83 | 0 | 0.0 | 0.0 | 0.00 | 0.00 | 0.00 | 75 | 1019.0 |
| 20260902130051 | 82 | 0 | 0.0 | 1.0 | 0.00 | 0.00 | 0.00 | 77 | 1019.0 |
| 20260902125532 | 81 | 0 | 0.0 | 1.0 | 0.00 | 0.00 | 0.00 | 78 | 1018.9 |
| 20260902125032 | 81 | 174 | 0.0 | 2.0 | 0.00 | 0.00 | 0.00 | 80 | 1018.9 |
| 20260902124545 | 80 | 178 | 0.0 | 2.0 | 0.00 | 0.00 | 0.00 | 81 | 1018.9 |
| 20260902124034 | 79 | 0 | 0.0 | 2.0 | 0.00 | 0.00 | 0.00 | 82 | 1018.8 |
| 20260902123530 | 78 | 0 | 0.0 | 2.0 | 0.00 | 0.00 | 0.00 | 85 | 1018.8 |
| 20260902123057 | 77 | 160 | 0.0 | 1.0 | 0.00 | 0.00 | 0.00 | 85 | 1018.8 |
| 20260902122531 | 77 | 0 | 0.0 | 1.0 | 0.00 | 0.00 | 0.00 | 85 | 1018.7 |
| 20260902122032 | 76 | 170 | 0.0 | 1.0 | 0.00 | 0.00 | 0.00 | 87 | 1018.7 |
| 20260902121550 | 76 | 0 | 0.0 | 0.0 | 0.00 | 0.00 | 0.00 | 88 | 1018.6 |
| 20260902121031 | 76 | 0 | 0.0 | 0.0 | 0.00 | 0.00 | 0.00 | 88 | 1018.6 |
| 20260902120531 | 75 | 0 | 0.0 | 0.0 | 0.00 | 0.00 | 0.00 | 89 | 1018.6 |
| 20260902120058 | 75 | 0 | 0.0 | 0.0 | 0.00 | 0.00 | 0.00 | 89 | 1018.5 |
| 20260902115528 | 74 | 0 | 0.0 | 0.0 | 0.00 | 0.00 | 0.00 | 90 | 1018.4 |
| 20260902115031 | 74 | 0 | 0.0 | 0.0 | 0.00 | 0.00 | 0.00 | 90 | 1018.4 |
| 20260902114554 | 74 | 0 | 0.0 | 0.0 | 0.00 | 0.00 | 0.00 | 90 | 1018.3 |
| 20260902114032 | 74 | 0 | 0.0 | 0.0 | 0.00 | 0.00 | 0.00 | 90 | 1018.3 |
| 20260902113530 | 74 | 0 | 0.0 | 0.0 | 0.00 | 0.00 | 0.00 | 90 | 1018.1 |
| 20260902113056 | 74 | 0 | 0.0 | 0.0 | 0.00 | 0.00 | 0.00 | 91 | 1018.2 |
| 20260902112530 | 73 | 0 | 0.0 | 0.0 | 0.00 | 0.00 | 0.00 | 91 | 1018.3 |
| 20260902112031 | 74 | 0 | 0.0 | 0.0 | 0.00 | 0.00 | 0.00 | 90 | 1018.2 |
| 20260902111558 | 73 | 159 | 0.0 | 0.0 | 0.00 | 0.00 | 0.00 | 91 | 1018.2 |
| 20260902111032 | 73 | 0 | 0.0 | 0.0 | 0.00 | 0.00 | 0.00 | 91 | 1018.3 |
| 20260902110533 | 74 | 0 | 0.0 | 0.0 | 0.00 | 0.00 | 0.00 | 90 | 1018.2 |
| 20260902110057 | 74 | 0 | 0.0 | 0.0 | 0.00 | 0.00 | 0.00 | 90 | 1018.1 |
| 20260902105532 | 74 | 0 | 0.0 | 0.0 | 0.00 | 0.00 | 0.00 | 90 | 1018.1 |
| 20260902105029 | 74 | 0 | 0.0 | 0.0 | 0.00 | 0.00 | 0.00 | 90 | 1018.1 |
| 20260902104610 | 74 | 0 | 0.0 | 0.0 | 0.00 | 0.00 | 0.00 | 90 | 1018.1 |
| 20260902104031 | 74 | 0 | 0.0 | 0.0 | 0.00 | 0.00 | 0.00 | 90 | 1018.0 |
| 20260902103528 | 74 | 0 | 0.0 | 0.0 | 0.00 | 0.00 | 0.00 | 90 | 1018.0 |
| 20260902103107 | 74 | 0 | 0.0 | 0.0 | 0.00 | 0.00 | 0.00 | 89 | 1017.9 |
| 20260902102528 | 74 | 0 | 0.0 | 0.0 | 0.00 | 0.00 | 0.00 | 89 | 1017.8 |
| 20260902102029 | 74 | 0 | 0.0 | 0.0 | 0.00 | 0.00 | 0.00 | 89 | 1017.9 |
| 20260902101554 | 75 | 0 | 0.0 | 0.0 | 0.00 | 0.00 | 0.00 | 88 | 1017.8 |
| 20260902101030 | 75 | 0 | 0.0 | 0.0 | 0.00 | 0.00 | 0.00 | 88 | 1017.8 |
| 20260902100529 | 75 | 0 | 0.0 | 0.0 | 0.00 | 0.00 | 0.00 | 88 | 1017.8 |
| 20260902100048 | 75 | 0 | 0.0 | 0.0 | 0.00 | 0.00 | 0.00 | 88 | 1017.8 |
| 20260902095531 | 75 | 0 | 0.0 | 0.0 | 0.00 | 0.00 | 0.00 | 87 | 1017.7 |
| 20260902095028 | 75 | 0 | 0.0 | 0.0 | 0.00 | 0.00 | 0.00 | 87 | 1017.9 |
| 20260902094556 | 75 | 0 | 0.0 | 0.0 | 0.00 | 0.00 | 0.00 | 87 | 1017.6 |
| 20260902094028 | 75 | 0 | 0.0 | 0.0 | 0.00 | 0.00 | 0.00 | 87 | 1017.7 |
| 20260902093529 | 76 | 0 | 0.0 | 0.0 | 0.00 | 0.00 | 0.00 | 86 | 1017.6 |
| 20260902093047 | 76 | 0 | 0.0 | 1.0 | 0.00 | 0.00 | 0.00 | 86 | 1017.5 |
| 20260902092530 | 76 | 0 | 0.0 | 1.0 | 0.00 | 0.00 | 0.00 | 86 | 1017.5 |
| 20260902092032 | 76 | 0 | 0.0 | 1.0 | 0.00 | 0.00 | 0.00 | 86 | 1017.5 |
| 20260902091557 | 76 | 0 | 0.0 | 1.0 | 0.00 | 0.00 | 0.00 | 86 | 1017.4 |
| 20260902091029 | 76 | 178 | 0.0 | 1.0 | 0.00 | 0.00 | 0.00 | 86 | 1017.3 |
| 20260902090530 | 76 | 0 | 0.0 | 0.0 | 0.00 | 0.00 | 0.00 | 86 | 1017.4 |
| 20260902090053 | 76 | 183 | 0.0 | 0.0 | 0.00 | 0.00 | 0.00 | 86 | 1017.2 |
| 20260902085530 | 76 | 0 | 0.0 | 0.0 | 0.00 | 0.00 | 0.00 | 86 | 1017.3 |
| 20260902085029 | 76 | 0 | 0.0 | 0.0 | 0.00 | 0.00 | 0.00 | 85 | 1017.3 |
| 20260902084553 | 76 | 0 | 0.0 | 0.0 | 0.00 | 0.00 | 0.00 | 85 | 1017.3 |
| 20260902084032 | 76 | 0 | 0.0 | 0.0 | 0.00 | 0.00 | 0.00 | 85 | 1017.3 |
| 20260902083533 | 77 | 0 | 0.0 | 1.0 | 0.00 | 0.00 | 0.00 | 84 | 1017.2 |
| 20260902083054 | 77 | 0 | 0.0 | 1.0 | 0.00 | 0.00 | 0.00 | 84 | 1017.4 |
| 20260902082531 | 77 | 159 | 0.0 | 1.0 | 0.00 | 0.00 | 0.00 | 84 | 1017.4 |
| 20260902082029 | 77 | 166 | 0.0 | 1.0 | 0.00 | 0.00 | 0.00 | 83 | 1017.2 |
| 20260902081556 | 77 | 0 | 0.0 | 1.0 | 0.00 | 0.00 | 0.00 | 83 | 1017.3 |
| 20260902081030 | 77 | 196 | 0.0 | 1.0 | 0.00 | 0.00 | 0.00 | 83 | 1017.2 |
| 20260902080530 | 78 | 183 | 0.0 | 2.0 | 0.00 | 0.00 | 0.00 | 82 | 1017.2 |
| 20260902080046 | 78 | 0 | 0.0 | 3.0 | 0.00 | 0.00 | 0.00 | 82 | 1017.1 |
| 20260902075528 | 78 | 0 | 0.0 | 3.0 | 0.00 | 0.00 | 0.00 | 82 | 1017.0 |
| 20260902075029 | 78 | 0 | 0.0 | 3.0 | 0.00 | 0.00 | 0.00 | 82 | 1017.0 |
| 20260902074551 | 78 | 0 | 0.0 | 3.0 | 0.00 | 0.00 | 0.00 | 82 | 1016.9 |
| 20260902074031 | 78 | 175 | 0.0 | 3.0 | 0.00 | 0.00 | 0.00 | 82 | 1017.0 |
| 20260902073528 | 78 | 147 | 0.0 | 2.0 | 0.00 | 0.00 | 0.00 | 81 | 1017.0 |
| 20260902073051 | 78 | 183 | 0.0 | 2.0 | 0.00 | 0.00 | 0.00 | 81 | 1017.0 |
| 20260902072530 | 78 | 164 | 0.0 | 4.0 | 0.00 | 0.00 | 0.00 | 81 | 1016.9 |
| 20260902072031 | 79 | 0 | 1.0 | 4.0 | 0.00 | 0.00 | 0.00 | 80 | 1016.9 |
| 20260902071552 | 79 | 0 | 1.0 | 4.0 | 0.00 | 0.00 | 0.00 | 80 | 1017.0 |
| 20260902071029 | 79 | 240 | 1.0 | 5.0 | 0.00 | 0.00 | 0.00 | 80 | 1017.0 |
| 20260902070528 | 79 | 201 | 0.0 | 5.0 | 0.00 | 0.00 | 0.00 | 80 | 1016.9 |
| 20260902070100 | 78 | 187 | 0.0 | 3.0 | 0.00 | 0.00 | 0.00 | 81 | 1017.0 |
| 20260902065531 | 78 | 0 | 0.0 | 2.0 | 0.00 | 0.00 | 0.00 | 81 | 1017.0 |
| 20260902065032 | 78 | 157 | 0.0 | 1.0 | 0.00 | 0.00 | 0.00 | 81 | 1017.0 |
| 20260902064604 | 78 | 196 | 0.0 | 1.0 | 0.00 | 0.00 | 0.00 | 81 | 1017.0 |
| 20260902064034 | 78 | 169 | 0.0 | 0.0 | 0.00 | 0.00 | 0.00 | 81 | 1017.0 |
| 20260902063532 | 78 | 158 | 0.0 | 0.0 | 0.00 | 0.00 | 0.00 | 81 | 1017.0 |
| 20260902063104 | 79 | 0 | 0.0 | 0.0 | 0.00 | 0.00 | 0.00 | 81 | 1017.0 |
| 20260902062534 | 79 | 167 | 0.0 | 0.0 | 0.00 | 0.00 | 0.00 | 80 | 1017.1 |
| 20260902062030 | 79 | 0 | 0.0 | 2.0 | 0.00 | 0.00 | 0.00 | 80 | 1017.2 |
| 20260902061609 | 79 | 0 | 0.0 | 4.0 | 0.00 | 0.00 | 0.00 | 80 | 1017.2 |
| 20260902061028 | 80 | 184 | 0.0 | 4.0 | 0.00 | 0.00 | 0.00 | 79 | 1017.2 |
| 20260902060529 | 80 | 203 | 1.0 | 4.0 | 0.00 | 0.00 | 0.00 | 78 | 1017.2 |
| 20260902060052 | 80 | 0 | 0.0 | 2.0 | 0.00 | 0.00 | 0.00 | 78 | 1017.3 |
| 20260902055532 | 80 | 0 | 0.0 | 3.0 | 0.00 | 0.00 | 0.00 | 78 | 1017.2 |
| 20260902055030 | 80 | 226 | 0.0 | 3.0 | 0.00 | 0.00 | 0.00 | 78 | 1017.4 |
| 20260902054553 | 80 | 176 | 1.0 | 3.0 | 0.00 | 0.00 | 0.00 | 78 | 1017.2 |
| 20260902054029 | 80 | 164 | 0.0 | 0.0 | 0.00 | 0.00 | 0.00 | 78 | 1017.1 |
| 20260902053532 | 80 | 0 | 0.0 | 2.0 | 0.00 | 0.00 | 0.00 | 78 | 1017.2 |
| 20260902053059 | 80 | 0 | 0.0 | 2.0 | 0.00 | 0.00 | 0.00 | 77 | 1017.2 |
| 20260902052528 | 80 | 0 | 0.0 | 2.0 | 0.00 | 0.00 | 0.00 | 77 | 1017.2 |
| 20260902052031 | 80 | 0 | 0.0 | 0.0 | 0.00 | 0.00 | 0.00 | 77 | 1017.1 |
| 20260902051605 | 80 | 0 | 0.0 | 0.0 | 0.00 | 0.00 | 0.00 | 77 | 1017.1 |
| 20260902051031 | 80 | 0 | 0.0 | 0.0 | 0.00 | 0.00 | 0.00 | 77 | 1017.1 |
| 20260902050531 | 80 | 0 | 0.0 | 0.0 | 0.00 | 0.00 | 0.00 | 77 | 1017.1 |
| 20260902050051 | 80 | 0 | 0.0 | 1.0 | 0.00 | 0.00 | 0.00 | 77 | 1017.1 |
| 20260902045530 | 80 | 0 | 0.0 | 1.0 | 0.00 | 0.00 | 0.00 | 77 | 1017.1 |
| 20260902045028 | 80 | 0 | 0.0 | 2.0 | 0.00 | 0.00 | 0.00 | 77 | 1017.2 |
| 20260902044605 | 80 | 0 | 0.0 | 2.0 | 0.00 | 0.00 | 0.00 | 77 | 1017.1 |
| 20260902044032 | 81 | 0 | 0.0 | 3.0 | 0.00 | 0.00 | 0.00 | 76 | 1017.1 |
| 20260902043528 | 81 | 0 | 0.0 | 3.0 | 0.00 | 0.00 | 0.00 | 76 | 1017.1 |
| 20260902043055 | 81 | 186 | 0.0 | 3.0 | 0.00 | 0.00 | 0.00 | 76 | 1017.1 |
| 20260902042528 | 81 | 0 | 0.0 | 3.0 | 0.00 | 0.00 | 0.00 | 76 | 1017.1 |
| 20260902042028 | 81 | 0 | 0.0 | 3.0 | 0.00 | 0.00 | 0.00 | 76 | 1017.2 |
| 20260902041556 | 81 | 171 | 0.0 | 3.0 | 0.00 | 0.00 | 0.00 | 76 | 1017.2 |
| 20260902041028 | 81 | 186 | 0.0 | 1.0 | 0.00 | 0.00 | 0.00 | 76 | 1017.2 |
| 20260902040528 | 81 | 0 | 0.0 | 1.0 | 0.00 | 0.00 | 0.00 | 75 | 1017.1 |
| 20260902040051 | 81 | 181 | 0.0 | 1.0 | 0.00 | 0.00 | 0.00 | 74 | 1017.0 |
| 20260902035529 | 81 | 173 | 0.0 | 2.0 | 0.00 | 0.00 | 0.00 | 74 | 1017.0 |
| 20260902035032 | 81 | 175 | 0.0 | 2.0 | 0.00 | 0.00 | 0.00 | 73 | 1017.1 |
| 20260902034547 | 81 | 0 | 0.0 | 2.0 | 0.00 | 0.00 | 0.00 | 74 | 1017.0 |
| 20260902034028 | 80 | 165 | 0.0 | 1.0 | 0.00 | 0.00 | 0.00 | 76 | 1017.1 |
| 20260902033529 | 80 | 0 | 0.0 | 0.0 | 0.00 | 0.00 | 0.00 | 76 | 1017.2 |
| 20260902033047 | 81 | 0 | 0.0 | 0.0 | 0.00 | 0.00 | 0.00 | 75 | 1017.2 |
| 20260902032529 | 81 | 0 | 0.0 | 0.0 | 0.00 | 0.00 | 0.00 | 74 | 1017.2 |
| 20260902032031 | 81 | 0 | 0.0 | 0.0 | 0.00 | 0.00 | 0.00 | 74 | 1017.2 |
| 20260902031601 | 81 | 0 | 0.0 | 0.0 | 0.00 | 0.00 | 0.00 | 73 | 1017.3 |
| 20260902031028 | 81 | 0 | 0.0 | 0.0 | 0.00 | 0.00 | 0.00 | 73 | 1017.2 |
| 20260902030527 | 80 | 0 | 0.0 | 0.0 | 0.00 | 0.00 | 0.00 | 74 | 1017.3 |
| 20260902030057 | 80 | 0 | 0.0 | 0.0 | 0.00 | 0.00 | 0.00 | 75 | 1017.2 |
| 20260902025530 | 80 | 0 | 0.0 | 0.0 | 0.00 | 0.00 | 0.00 | 75 | 1017.2 |
| 20260902025030 | 80 | 0 | 0.0 | 0.0 | 0.00 | 0.00 | 0.00 | 74 | 1017.1 |
| 20260902024552 | 80 | 0 | 0.0 | 0.0 | 0.00 | 0.00 | 0.00 | 74 | 1017.1 |
| 20260902024028 | 80 | 0 | 0.0 | 0.0 | 0.00 | 0.00 | 0.00 | 75 | 1017.2 |
| 20260902023531 | 80 | 0 | 0.0 | 0.0 | 0.00 | 0.00 | 0.00 | 74 | 1017.1 |
| 20260902023054 | 80 | 0 | 0.0 | 0.0 | 0.00 | 0.00 | 0.00 | 74 | 1017.2 |
| 20260902022529 | 80 | 0 | 0.0 | 0.0 | 0.00 | 0.00 | 0.00 | 74 | 1017.1 |
| 20260902022028 | 81 | 0 | 0.0 | 0.0 | 0.00 | 0.00 | 0.00 | 74 | 1017.1 |
| 20260902021553 | 81 | 0 | 0.0 | 0.0 | 0.00 | 0.00 | 0.00 | 73 | 1017.1 |
| 20260902021031 | 81 | 0 | 0.0 | 0.0 | 0.00 | 0.00 | 0.00 | 73 | 1017.1 |
| 20260902020531 | 81 | 0 | 0.0 | 0.0 | 0.00 | 0.00 | 0.00 | 72 | 1017.0 |
| 20260902020054 | 81 | 0 | 0.0 | 0.0 | 0.00 | 0.00 | 0.00 | 72 | 1017.1 |
| 20260902015528 | 82 | 0 | 0.0 | 0.0 | 0.00 | 0.00 | 0.00 | 72 | 1017.0 |
| 20260902015028 | 82 | 0 | 0.0 | 0.0 | 0.00 | 0.00 | 0.00 | 72 | 1017.1 |
| 20260902014552 | 82 | 0 | 0.0 | 0.0 | 0.00 | 0.00 | 0.00 | 72 | 1017.0 |
| 20260902014032 | 82 | 0 | 0.0 | 0.0 | 0.00 | 0.00 | 0.00 | 71 | 1017.1 |
| 20260902013528 | 82 | 0 | 0.0 | 0.0 | 0.00 | 0.00 | 0.00 | 70 | 1017.1 |
| 20260902013104 | 82 | 0 | 0.0 | 0.0 | 0.00 | 0.00 | 0.00 | 70 | 1017.0 |
| 20260902012531 | 82 | 0 | 0.0 | 0.0 | 0.00 | 0.00 | 0.00 | 70 | 1016.8 |
| 20260902012028 | 83 | 0 | 0.0 | 0.0 | 0.00 | 0.00 | 0.00 | 69 | 1016.8 |
| 20260902011558 | 83 | 0 | 0.0 | 0.0 | 0.00 | 0.00 | 0.00 | 69 | 1016.8 |
| 20260902011028 | 83 | 0 | 0.0 | 0.0 | 0.00 | 0.00 | 0.00 | 69 | 1016.8 |
| 20260902010528 | 83 | 0 | 0.0 | 0.0 | 0.00 | 0.00 | 0.00 | 68 | 1016.7 |
| 20260902010059 | 84 | 0 | 0.0 | 0.0 | 0.00 | 0.00 | 0.00 | 67 | 1016.6 |
| 20260902005528 | 85 | 0 | 0.0 | 0.0 | 0.00 | 0.00 | 0.00 | 66 | 1016.5 |
| 20260902005031 | 85 | 0 | 0.0 | 0.0 | 0.00 | 0.00 | 0.00 | 64 | 1016.5 |
| 20260902004552 | 85 | 0 | 0.0 | 0.0 | 0.00 | 0.00 | 0.00 | 64 | 1016.5 |
| 20260902004029 | 86 | 0 | 0.0 | 0.0 | 0.00 | 0.00 | 0.00 | 63 | 1016.5 |
| 20260902003528 | 86 | 0 | 0.0 | 0.0 | 0.00 | 0.00 | 0.00 | 62 | 1016.5 |
| 20260902003048 | 87 | 0 | 0.0 | 0.0 | 0.00 | 0.00 | 0.00 | 61 | 1016.4 |
| 20260902002529 | 87 | 0 | 0.0 | 0.0 | 0.00 | 0.00 | 0.00 | 61 | 1016.5 |
| 20260902002028 | 87 | 0 | 0.0 | 0.0 | 0.00 | 0.00 | 0.00 | 61 | 1016.4 |
| 20260902001549 | 88 | 0 | 0.0 | 0.0 | 0.00 | 0.00 | 0.00 | 59 | 1016.5 |
| 20260902001028 | 88 | 0 | 0.0 | 0.0 | 0.00 | 0.00 | 0.00 | 58 | 1016.5 |
| 20260902000530 | 89 | 0 | 0.0 | 0.0 | 0.00 | 0.00 | 0.00 | 58 | 1016.6 |
| 20260902000045 | 90 | 0 | 0.0 | 0.0 | 0.00 | 0.00 | 0.00 | 55 | 1016.5 |
| 20260901235529 | 90 | 0 | 0.0 | 0.0 | 0.00 | 0.00 | 0.00 | 55 | 1016.5 |
| 20260901235032 | 91 | 0 | 0.0 | 0.0 | 0.00 | 0.00 | 0.00 | 54 | 1016.5 |
| 20260901234557 | 91 | 0 | 0.0 | 0.0 | 0.00 | 0.00 | 0.00 | 54 | 1016.5 |